| time (UTC) | temp F | wind direction | speed knots | gust knots | rain 1hr in | rain 24hr in | rain mn in | humidity % | barometer mb |
| 20260506121531 | 67 | 158 | 0.9 | 1.7 | 0.00 | 0.00 | 0.00 | 85 | 1014.4 |
| 20260506121027 | 66 | 193 | 2.6 | 4.3 | 0.00 | 0.00 | 0.00 | 85 | 1014.3 |
| 20260506120525 | 66 | 184 | 2.6 | 4.3 | 0.00 | 0.00 | 0.00 | 86 | 1014.5 |
| 20260506120022 | 66 | 186 | 1.7 | 2.6 | 0.00 | 0.00 | 0.00 | 86 | 1014.7 |
| 20260506115520 | 66 | 189 | 0.9 | 0.9 | 0.00 | 0.00 | 0.00 | 86 | 1014.4 |
| 20260506115018 | 66 | 171 | 3.5 | 4.3 | 0.00 | 0.00 | 0.00 | 86 | 1014.4 |
| 20260506114515 | 66 | 210 | 0.9 | 1.7 | 0.00 | 0.00 | 0.00 | 86 | 1014.5 |
| 20260506114014 | 66 | 218 | 0.9 | 0.9 | 0.00 | 0.00 | 0.00 | 87 | 1014.9 |
| 20260506113511 | 65 | 207 | 2.6 | 2.6 | 0.00 | 0.00 | 0.00 | 87 | 1014.5 |
| 20260506113008 | 65 | 187 | 0.9 | 0.9 | 0.00 | 0.00 | 0.00 | 87 | 1014.4 |
| 20260506112505 | 65 | 208 | 2.6 | 4.3 | 0.00 | 0.00 | 0.00 | 87 | 1014.1 |
| 20260506112002 | 65 | 149 | 2.6 | 2.6 | 0.00 | 0.00 | 0.00 | 88 | 1014.3 |
| 20260506111500 | 64 | 177 | 3.5 | 5.2 | 0.00 | 0.00 | 0.00 | 88 | 1014.4 |
| 20260506110957 | 64 | 182 | 2.6 | 4.3 | 0.00 | 0.00 | 0.00 | 89 | 1014.4 |
| 20260506110455 | 64 | 182 | 1.7 | 1.7 | 0.00 | 0.00 | 0.00 | 89 | 1014.1 |
| 20260506105951 | 64 | 203 | 2.6 | 2.6 | 0.00 | 0.00 | 0.00 | 89 | 1014.0 |
| 20260506105447 | 64 | 203 | 2.6 | 2.6 | 0.00 | 0.00 | 0.00 | 89 | 1014.1 |
| 20260506104945 | 64 | 160 | 2.6 | 2.6 | 0.00 | 0.00 | 0.00 | 89 | 1014.2 |
| 20260506104443 | 64 | 150 | 0.0 | 0.9 | 0.00 | 0.00 | 0.00 | 89 | 1014.3 |
| 20260506103941 | 64 | 201 | 2.6 | 2.6 | 0.00 | 0.00 | 0.00 | 90 | 1014.5 |
| 20260506103438 | 64 | 166 | 0.9 | 1.7 | 0.00 | 0.00 | 0.00 | 89 | 1014.4 |
| 20260506102935 | 64 | 148 | 1.7 | 1.7 | 0.00 | 0.00 | 0.00 | 90 | 1014.4 |
| 20260506102433 | 64 | 174 | 2.6 | 2.6 | 0.00 | 0.00 | 0.00 | 89 | 1014.4 |
| 20260506101930 | 64 | 161 | 1.7 | 2.6 | 0.00 | 0.00 | 0.00 | 89 | 1014.4 |
| 20260506101426 | 64 | 191 | 2.6 | 2.6 | 0.00 | 0.00 | 0.00 | 89 | 1014.2 |
| 20260506100924 | 64 | 187 | 0.9 | 0.9 | 0.00 | 0.00 | 0.00 | 90 | 1014.2 |
| 20260506100422 | 64 | 172 | 0.9 | 0.9 | 0.00 | 0.00 | 0.00 | 90 | 1013.9 |
| 20260506095919 | 64 | 146 | 0.9 | 0.9 | 0.00 | 0.00 | 0.00 | 90 | 1014.0 |
| 20260506095418 | 64 | 160 | 0.9 | 1.7 | 0.00 | 0.00 | 0.00 | 89 | 1013.9 |
| 20260506094914 | 64 | 148 | 1.7 | 2.6 | 0.00 | 0.00 | 0.00 | 89 | 1014.0 |
| 20260506094412 | 64 | 186 | 1.7 | 2.6 | 0.00 | 0.00 | 0.00 | 89 | 1014.0 |
| 20260506093910 | 64 | 192 | 2.6 | 2.6 | 0.00 | 0.00 | 0.00 | 89 | 1014.1 |
| 20260506093407 | 64 | 187 | 1.7 | 2.6 | 0.00 | 0.00 | 0.00 | 88 | 1014.0 |
| 20260506092905 | 64 | 173 | 0.9 | 1.7 | 0.00 | 0.00 | 0.00 | 88 | 1014.1 |
| 20260506092403 | 64 | 232 | 0.0 | 0.9 | 0.00 | 0.00 | 0.00 | 88 | 1014.1 |
| 20260506091859 | 64 | 181 | 1.7 | 2.6 | 0.00 | 0.00 | 0.00 | 88 | 1014.3 |
| 20260506091357 | 64 | 174 | 2.6 | 2.6 | 0.00 | 0.00 | 0.00 | 88 | 1014.2 |
| 20260506090854 | 64 | 186 | 0.9 | 1.7 | 0.00 | 0.00 | 0.00 | 88 | 1014.2 |
| 20260506090352 | 64 | 187 | 0.9 | 1.7 | 0.00 | 0.00 | 0.00 | 88 | 1014.5 |
| 20260506085848 | 64 | 150 | 0.9 | 0.9 | 0.00 | 0.00 | 0.00 | 88 | 1014.4 |
| 20260506085344 | 64 | 212 | 0.9 | 0.9 | 0.00 | 0.00 | 0.00 | 88 | 1014.6 |
| 20260506084841 | 64 | 185 | 0.9 | 0.9 | 0.00 | 0.00 | 0.00 | 88 | 1014.4 |
| 20260506084338 | 64 | 210 | 1.7 | 1.7 | 0.00 | 0.00 | 0.00 | 87 | 1014.5 |
| 20260506083834 | 64 | 239 | 0.0 | 0.9 | 0.00 | 0.00 | 0.00 | 88 | 1014.5 |
| 20260506083332 | 64 | 179 | 1.7 | 1.7 | 0.00 | 0.00 | 0.00 | 88 | 1014.5 |
| 20260506082829 | 64 | 186 | 0.9 | 1.7 | 0.00 | 0.00 | 0.00 | 88 | 1014.2 |
| 20260506082326 | 64 | 165 | 1.7 | 1.7 | 0.00 | 0.00 | 0.00 | 88 | 1014.3 |
| 20260506081822 | 64 | 207 | 0.9 | 1.7 | 0.00 | 0.00 | 0.00 | 88 | 1014.3 |
| 20260506081320 | 64 | 168 | 2.6 | 2.6 | 0.00 | 0.00 | 0.00 | 88 | 1014.4 |
| 20260506080817 | 64 | 197 | 0.9 | 0.9 | 0.00 | 0.00 | 0.00 | 88 | 1014.3 |
| 20260506080313 | 64 | 209 | 3.5 | 4.3 | 0.00 | 0.00 | 0.00 | 88 | 1014.1 |
| 20260506073258 | 64 | 177 | 2.6 | 2.6 | 0.00 | 0.00 | 0.00 | 87 | 1014.1 |
| 20260506072754 | 64 | 208 | 2.6 | 2.6 | 0.00 | 0.00 | 0.00 | 88 | 1014.2 |
| 20260506072252 | 64 | 151 | 1.7 | 1.7 | 0.00 | 0.00 | 0.00 | 87 | 1014.3 |
| 20260506071750 | 64 | 273 | 0.0 | 0.9 | 0.00 | 0.00 | 0.00 | 88 | 1014.2 |
| 20260506071247 | 65 | 179 | 3.5 | 4.3 | 0.00 | 0.00 | 0.00 | 88 | 1014.1 |
| 20260506070744 | 65 | 173 | 3.5 | 4.3 | 0.00 | 0.00 | 0.00 | 87 | 1014.3 |
| 20260506070241 | 65 | 190 | 3.5 | 4.3 | 0.00 | 0.00 | 0.00 | 87 | 1014.3 |
| 20260506062218 | 65 | 204 | 0.9 | 1.7 | 0.00 | 0.00 | 0.00 | 86 | 1014.5 |
| 20260506061714 | 65 | 170 | 3.5 | 5.2 | 0.00 | 0.00 | 0.00 | 86 | 1014.6 |
| 20260506061212 | 65 | 194 | 3.5 | 5.2 | 0.00 | 0.00 | 0.00 | 86 | 1014.8 |
| 20260506060710 | 65 | 193 | 1.7 | 2.6 | 0.00 | 0.00 | 0.00 | 86 | 1014.7 |
| 20260506060207 | 65 | 201 | 1.7 | 2.6 | 0.00 | 0.00 | 0.00 | 86 | 1015.0 |
| 20260506051139 | 65 | 165 | 0.9 | 0.9 | 0.00 | 0.00 | 0.00 | 86 | 1015.3 |
| 20260506050637 | 65 | 191 | 0.9 | 0.9 | 0.00 | 0.00 | 0.00 | 86 | 1015.6 |
| 20260506050134 | 65 | 153 | 0.0 | 0.9 | 0.00 | 0.00 | 0.00 | 86 | 1015.4 |
| 20260506045127 | 65 | 177 | 1.7 | 1.7 | 0.00 | 0.00 | 0.00 | 86 | 1015.6 |
| 20260506044625 | 65 | 138 | 1.7 | 1.7 | 0.00 | 0.00 | 0.00 | 86 | 1015.4 |
| 20260506044122 | 65 | 208 | 0.9 | 0.9 | 0.00 | 0.00 | 0.00 | 87 | 1015.5 |
| 20260506043619 | 65 | 170 | 2.6 | 5.2 | 0.00 | 0.00 | 0.00 | 87 | 1015.5 |
| 20260506043117 | 65 | 199 | 2.6 | 4.3 | 0.00 | 0.00 | 0.00 | 87 | 1015.7 |
| 20260506042616 | 65 | 199 | 1.7 | 2.6 | 0.00 | 0.00 | 0.00 | 87 | 1015.7 |
| 20260506042113 | 65 | 210 | 0.9 | 0.9 | 0.00 | 0.00 | 0.00 | 87 | 1015.5 |
| 20260506041612 | 66 | 258 | 0.0 | 0.0 | 0.00 | 0.00 | 0.00 | 87 | 1015.7 |
| 20260506041108 | 66 | 225 | 3.5 | 4.3 | 0.00 | 0.00 | 0.00 | 86 | 1015.7 |
| 20260506040606 | 66 | 216 | 0.0 | 0.9 | 0.00 | 0.00 | 0.00 | 86 | 1015.8 |
| 20260506035559 | 66 | 186 | 2.6 | 2.6 | 0.00 | 0.00 | 0.00 | 85 | 1015.6 |
| 20260506035056 | 66 | 168 | 2.6 | 4.3 | 0.00 | 0.00 | 0.00 | 85 | 1015.5 |
| 20260506034553 | 66 | 224 | 1.7 | 2.6 | 0.00 | 0.00 | 0.00 | 84 | 1015.5 |
| 20260506034050 | 66 | 172 | 2.6 | 4.3 | 0.00 | 0.00 | 0.00 | 84 | 1015.6 |
| 20260506033547 | 66 | 213 | 1.7 | 2.6 | 0.00 | 0.00 | 0.00 | 84 | 1015.5 |
| 20260506033044 | 66 | 168 | 4.3 | 5.2 | 0.00 | 0.00 | 0.00 | 83 | 1015.5 |
| 20260506032541 | 66 | 176 | 2.6 | 2.6 | 0.00 | 0.00 | 0.00 | 83 | 1015.6 |
| 20260506032032 | 66 | 179 | 4.3 | 6.1 | 0.00 | 0.00 | 0.00 | 82 | 1015.6 |
| 20260506031530 | 66 | 197 | 3.5 | 4.3 | 0.00 | 0.00 | 0.00 | 82 | 1015.6 |
| 20260506031027 | 66 | 185 | 2.6 | 4.3 | 0.00 | 0.00 | 0.00 | 81 | 1015.6 |
| 20260506030525 | 66 | 226 | 3.5 | 4.3 | 0.00 | 0.00 | 0.00 | 81 | 1015.6 |
| 20260506030022 | 66 | 171 | 2.6 | 5.2 | 0.00 | 0.00 | 0.00 | 81 | 1015.6 |
| 20260506025519 | 67 | 219 | 1.7 | 2.6 | 0.00 | 0.00 | 0.00 | 81 | 1015.6 |
| 20260506025015 | 67 | 190 | 2.6 | 2.6 | 0.00 | 0.00 | 0.00 | 80 | 1015.4 |
| 20260506024512 | 67 | 188 | 3.5 | 5.2 | 0.00 | 0.00 | 0.00 | 80 | 1015.8 |
| 20260506024008 | 67 | 173 | 2.6 | 4.3 | 0.00 | 0.00 | 0.00 | 79 | 1015.6 |
| 20260506023504 | 67 | 188 | 4.3 | 6.1 | 0.00 | 0.00 | 0.00 | 79 | 1015.7 |
| 20260506023002 | 67 | 172 | 4.3 | 6.1 | 0.00 | 0.00 | 0.00 | 80 | 1015.4 |
| 20260506022459 | 67 | 174 | 3.5 | 4.3 | 0.00 | 0.00 | 0.00 | 79 | 1015.6 |
| 20260506021957 | 67 | 183 | 3.5 | 5.2 | 0.00 | 0.00 | 0.00 | 79 | 1015.7 |
| 20260506021454 | 67 | 157 | 2.6 | 4.3 | 0.00 | 0.00 | 0.00 | 79 | 1015.5 |
| 20260506020951 | 68 | 186 | 2.6 | 4.3 | 0.00 | 0.00 | 0.00 | 78 | 1015.6 |
| 20260506020449 | 68 | 185 | 5.2 | 6.1 | 0.00 | 0.00 | 0.00 | 78 | 1015.6 |
| 20260506015946 | 68 | 183 | 4.3 | 5.2 | 0.00 | 0.00 | 0.00 | 76 | 1015.4 |
| 20260506015443 | 68 | 165 | 2.6 | 4.3 | 0.00 | 0.00 | 0.00 | 78 | 1015.6 |
| 20260506014940 | 68 | 171 | 3.5 | 5.2 | 0.00 | 0.00 | 0.00 | 77 | 1015.3 |
| 20260506014437 | 68 | 178 | 3.5 | 4.3 | 0.00 | 0.00 | 0.00 | 77 | 1015.3 |
| 20260506013933 | 68 | 183 | 3.5 | 5.2 | 0.00 | 0.00 | 0.00 | 77 | 1015.4 |
| 20260506013432 | 68 | 161 | 4.3 | 5.2 | 0.00 | 0.00 | 0.00 | 76 | 1015.1 |
| 20260506012928 | 68 | 173 | 4.3 | 5.2 | 0.00 | 0.00 | 0.00 | 74 | 1015.4 |
| 20260506012424 | 68 | 188 | 4.3 | 6.1 | 0.00 | 0.00 | 0.00 | 76 | 1015.3 |
| 20260506011921 | 68 | 181 | 3.5 | 4.3 | 0.00 | 0.00 | 0.00 | 76 | 1015.3 |
| 20260506011419 | 69 | 162 | 4.3 | 5.2 | 0.00 | 0.00 | 0.00 | 75 | 1015.3 |
| 20260506010915 | 69 | 185 | 3.5 | 4.3 | 0.00 | 0.00 | 0.00 | 75 | 1015.1 |
| 20260506010414 | 69 | 167 | 4.3 | 5.2 | 0.00 | 0.00 | 0.00 | 75 | 1015.1 |
| 20260506005910 | 69 | 197 | 5.2 | 7.0 | 0.00 | 0.00 | 0.00 | 75 | 1015.0 |
| 20260506005408 | 69 | 207 | 2.6 | 4.3 | 0.00 | 0.00 | 0.00 | 74 | 1014.8 |
| 20260506004903 | 69 | 218 | 2.6 | 4.3 | 0.00 | 0.00 | 0.00 | 73 | 1014.9 |
| 20260506004401 | 69 | 193 | 3.5 | 5.2 | 0.00 | 0.00 | 0.00 | 74 | 1015.1 |
| 20260506003857 | 69 | 222 | 2.6 | 4.3 | 0.00 | 0.00 | 0.00 | 73 | 1015.1 |
| 20260506003353 | 69 | 179 | 2.6 | 5.2 | 0.00 | 0.00 | 0.00 | 74 | 1014.8 |
| 20260506002850 | 70 | 205 | 2.6 | 2.6 | 0.00 | 0.00 | 0.00 | 75 | 1014.8 |
| 20260506002346 | 70 | 182 | 4.3 | 6.1 | 0.00 | 0.00 | 0.00 | 74 | 1014.6 |
| 20260506001841 | 70 | 184 | 3.5 | 4.3 | 0.00 | 0.00 | 0.00 | 73 | 1014.7 |
| 20260506001339 | 70 | 223 | 3.5 | 4.3 | 0.00 | 0.00 | 0.00 | 73 | 1014.5 |
| 20260506000836 | 70 | 168 | 2.6 | 2.6 | 0.00 | 0.00 | 0.00 | 72 | 1014.9 |
| 20260506000334 | 70 | 182 | 5.2 | 6.1 | 0.00 | 0.00 | 0.00 | 71 | 1014.8 |
| 20260505235830 | 70 | 186 | 4.3 | 5.2 | 0.00 | 0.00 | 0.00 | 70 | 1014.8 |
| 20260505235328 | 71 | 185 | 4.3 | 6.1 | 0.00 | 0.00 | 0.00 | 72 | 1014.6 |
| 20260505234824 | 70 | 191 | 4.3 | 4.3 | 0.00 | 0.00 | 0.00 | 72 | 1014.5 |
| 20260505234322 | 71 | 358 | 3.5 | 5.2 | 0.00 | 0.00 | 0.00 | 71 | 1014.4 |
| 20260505233819 | 71 | 165 | 3.5 | 4.3 | 0.00 | 0.00 | 0.00 | 71 | 1014.5 |
| 20260505233317 | 71 | 183 | 4.3 | 6.1 | 0.00 | 0.00 | 0.00 | 70 | 1014.2 |
| 20260505232814 | 71 | 150 | 6.1 | 8.7 | 0.00 | 0.00 | 0.00 | 69 | 1014.3 |
| 20260505232311 | 71 | 181 | 4.3 | 5.2 | 0.00 | 0.00 | 0.00 | 71 | 1014.3 |
| 20260505231808 | 72 | 175 | 4.3 | 6.1 | 0.00 | 0.00 | 0.00 | 70 | 1014.1 |
| 20260505231306 | 72 | 176 | 6.1 | 7.8 | 0.00 | 0.00 | 0.00 | 68 | 1014.1 |
| 20260505230804 | 72 | 170 | 4.3 | 5.2 | 0.00 | 0.00 | 0.00 | 69 | 1014.0 |
| 20260505230300 | 72 | 194 | 6.1 | 7.8 | 0.00 | 0.00 | 0.00 | 68 | 1014.0 |
| 20260505225757 | 72 | 135 | 5.2 | 6.1 | 0.00 | 0.00 | 0.00 | 67 | 1014.1 |
| 20260505225254 | 73 | 166 | 2.6 | 4.3 | 0.00 | 0.00 | 0.00 | 70 | 1013.9 |
| 20260505224749 | 73 | 193 | 4.3 | 6.1 | 0.00 | 0.00 | 0.00 | 69 | 1013.9 |
| 20260505224247 | 73 | 159 | 3.5 | 4.3 | 0.00 | 0.00 | 0.00 | 69 | 1014.0 |
| 20260505223745 | 73 | 154 | 4.3 | 5.2 | 0.00 | 0.00 | 0.00 | 69 | 1014.0 |
| 20260505223241 | 73 | 162 | 5.2 | 6.1 | 0.00 | 0.00 | 0.00 | 67 | 1013.9 |
| 20260505222737 | 73 | 181 | 4.3 | 6.1 | 0.00 | 0.00 | 0.00 | 67 | 1014.2 |
| 20260505222233 | 73 | 171 | 6.1 | 7.0 | 0.00 | 0.00 | 0.00 | 68 | 1014.0 |
| 20260505221731 | 74 | 197 | 3.5 | 5.2 | 0.00 | 0.00 | 0.00 | 69 | 1014.2 |
| 20260505221227 | 74 | 171 | 4.3 | 6.1 | 0.00 | 0.00 | 0.00 | 68 | 1013.9 |
| 20260505220724 | 74 | 228 | 2.6 | 4.3 | 0.00 | 0.00 | 0.00 | 67 | 1014.0 |
| 20260505220222 | 73 | 162 | 4.3 | 6.1 | 0.00 | 0.00 | 0.00 | 68 | 1014.1 |
| 20260505215720 | 74 | 158 | 5.2 | 7.0 | 0.00 | 0.00 | 0.00 | 68 | 1014.1 |
| 20260505215217 | 74 | 166 | 3.5 | 4.3 | 0.00 | 0.00 | 0.00 | 69 | 1014.1 |
| 20260505214715 | 74 | 184 | 5.2 | 6.1 | 0.00 | 0.00 | 0.00 | 67 | 1014.0 |
| 20260505214212 | 74 | 162 | 4.3 | 6.1 | 0.00 | 0.00 | 0.00 | 68 | 1014.0 |
| 20260505213709 | 74 | 176 | 4.3 | 5.2 | 0.00 | 0.00 | 0.00 | 68 | 1014.1 |
| 20260505213206 | 74 | 191 | 4.3 | 6.1 | 0.00 | 0.00 | 0.00 | 65 | 1013.8 |
| 20260505212702 | 75 | 169 | 4.3 | 4.3 | 0.00 | 0.00 | 0.00 | 67 | 1013.8 |
| 20260505212200 | 75 | 178 | 4.3 | 6.1 | 0.00 | 0.00 | 0.00 | 66 | 1013.8 |
| 20260505211656 | 75 | 174 | 4.3 | 5.2 | 0.00 | 0.00 | 0.00 | 66 | 1013.8 |
| 20260505211154 | 75 | 181 | 3.5 | 4.3 | 0.00 | 0.00 | 0.00 | 68 | 1013.9 |
| 20260505210650 | 75 | 133 | 2.6 | 2.6 | 0.00 | 0.00 | 0.00 | 68 | 1014.0 |
| 20260505210141 | 75 | 150 | 2.6 | 2.6 | 0.00 | 0.00 | 0.00 | 68 | 1013.9 |
| 20260505205638 | 75 | 159 | 2.6 | 2.6 | 0.00 | 0.00 | 0.00 | 67 | 1013.9 |
| 20260505205137 | 76 | 147 | 2.6 | 4.3 | 0.00 | 0.00 | 0.00 | 68 | 1013.8 |
| 20260505204633 | 75 | 171 | 4.3 | 5.2 | 0.00 | 0.00 | 0.00 | 67 | 1013.7 |
| 20260505204131 | 76 | 173 | 3.5 | 4.3 | 0.00 | 0.00 | 0.00 | 65 | 1014.0 |
| 20260505203628 | 77 | 161 | 2.6 | 2.6 | 0.00 | 0.00 | 0.00 | 64 | 1013.8 |
| 20260505203125 | 76 | 166 | 4.3 | 5.2 | 0.00 | 0.00 | 0.00 | 65 | 1013.7 |
| 20260505202620 | 76 | 150 | 2.6 | 2.6 | 0.00 | 0.00 | 0.00 | 65 | 1013.8 |
| 20260505202116 | 77 | 173 | 2.6 | 2.6 | 0.00 | 0.00 | 0.00 | 64 | 1014.0 |
| 20260505201613 | 76 | 158 | 2.6 | 2.6 | 0.00 | 0.00 | 0.00 | 63 | 1013.9 |
| 20260505201111 | 77 | 171 | 2.6 | 4.3 | 0.00 | 0.00 | 0.00 | 65 | 1013.9 |
| 20260505200609 | 78 | 161 | 1.7 | 1.7 | 0.00 | 0.00 | 0.00 | 64 | 1014.2 |
| 20260505200106 | 77 | 192 | 5.2 | 6.1 | 0.00 | 0.00 | 0.00 | 61 | 1014.3 |
| 20260505195601 | 77 | 161 | 2.6 | 2.6 | 0.00 | 0.00 | 0.00 | 63 | 1014.3 |
| 20260505195059 | 78 | 143 | 1.7 | 1.7 | 0.00 | 0.00 | 0.00 | 63 | 1014.1 |
| 20260505194556 | 78 | 161 | 2.6 | 2.6 | 0.00 | 0.00 | 0.00 | 60 | 1014.5 |
| 20260505194051 | 77 | 168 | 2.6 | 2.6 | 0.00 | 0.00 | 0.00 | 62 | 1014.6 |
| 20260505193548 | 78 | 201 | 5.2 | 6.1 | 0.00 | 0.00 | 0.00 | 58 | 1014.8 |
| 20260505193045 | 78 | 130 | 1.7 | 1.7 | 0.00 | 0.00 | 0.00 | 61 | 1014.6 |
| 20260505192544 | 79 | 198 | 4.3 | 5.2 | 0.00 | 0.00 | 0.00 | 56 | 1014.7 |
| 20260505192041 | 79 | 305 | 1.7 | 1.7 | 0.00 | 0.00 | 0.00 | 55 | 1014.8 |
| 20260505191540 | 79 | 234 | 1.7 | 4.3 | 0.00 | 0.00 | 0.00 | 53 | 1014.8 |
| 20260505191038 | 79 | 216 | 0.9 | 1.7 | 0.00 | 0.00 | 0.00 | 58 | 1014.8 |
| 20260505190532 | 79 | 249 | 1.7 | 2.6 | 0.00 | 0.00 | 0.00 | 56 | 1014.8 |
| 20260505190029 | 79 | 159 | 2.6 | 2.6 | 0.00 | 0.00 | 0.00 | 59 | 1014.8 |
| 20260505185525 | 79 | 249 | 1.7 | 2.6 | 0.00 | 0.00 | 0.00 | 56 | 1015.1 |
| 20260505185022 | 79 | 177 | 3.5 | 4.3 | 0.00 | 0.00 | 0.00 | 53 | 1015.2 |
| 20260505184519 | 78 | 155 | 1.7 | 1.7 | 0.00 | 0.00 | 0.00 | 55 | 1014.9 |
| 20260505184015 | 79 | 183 | 3.5 | 4.3 | 0.00 | 0.00 | 0.00 | 56 | 1015.2 |
| 20260505183512 | 79 | 180 | 2.6 | 2.6 | 0.00 | 0.00 | 0.00 | 54 | 1015.1 |
| 20260505183009 | 79 | 273 | 0.9 | 1.7 | 0.00 | 0.00 | 0.00 | 55 | 1015.2 |
| 20260505182506 | 79 | 151 | 4.3 | 5.2 | 0.00 | 0.00 | 0.00 | 56 | 1015.2 |
| 20260505182003 | 79 | 164 | 2.6 | 6.1 | 0.00 | 0.00 | 0.00 | 55 | 1015.5 |
| 20260505181459 | 79 | 226 | 0.9 | 0.9 | 0.00 | 0.00 | 0.00 | 56 | 1015.4 |
| 20260505180956 | 79 | 212 | 3.5 | 4.3 | 0.00 | 0.00 | 0.00 | 55 | 1015.3 |
| 20260505180452 | 78 | 182 | 2.6 | 2.6 | 0.00 | 0.00 | 0.00 | 55 | 1015.1 |
| 20260505175949 | 78 | 241 | 0.9 | 1.7 | 0.00 | 0.00 | 0.00 | 55 | 1015.3 |
| 20260505175445 | 78 | 224 | 3.5 | 5.2 | 0.00 | 0.00 | 0.00 | 56 | 1015.5 |
| 20260505174942 | 78 | 177 | 3.5 | 4.3 | 0.00 | 0.00 | 0.00 | 55 | 1015.4 |
| 20260505174439 | 77 | 197 | 3.5 | 6.1 | 0.00 | 0.00 | 0.00 | 54 | 1015.5 |
| 20260505173935 | 77 | 182 | 2.6 | 2.6 | 0.00 | 0.00 | 0.00 | 58 | 1015.4 |
| 20260505173431 | 77 | 223 | 0.9 | 1.7 | 0.00 | 0.00 | 0.00 | 59 | 1015.5 |
| 20260505172929 | 76 | 184 | 2.6 | 2.6 | 0.00 | 0.00 | 0.00 | 58 | 1015.7 |
| 20260505172428 | 76 | 169 | 2.6 | 2.6 | 0.00 | 0.00 | 0.00 | 59 | 1015.8 |
| 20260505171926 | 77 | 175 | 2.6 | 2.6 | 0.00 | 0.00 | 0.00 | 57 | 1015.6 |
| 20260505171423 | 78 | 188 | 2.6 | 2.6 | 0.00 | 0.00 | 0.00 | 55 | 1015.7 |
| 20260505170920 | 78 | 161 | 0.9 | 0.9 | 0.00 | 0.00 | 0.00 | 57 | 1015.9 |
| 20260505170416 | 77 | 182 | 2.6 | 2.6 | 0.00 | 0.00 | 0.00 | 60 | 1016.0 |
| 20260505165912 | 77 | 165 | 2.6 | 2.6 | 0.00 | 0.00 | 0.00 | 56 | 1016.0 |
| 20260505165409 | 76 | 332 | 1.7 | 2.6 | 0.00 | 0.00 | 0.00 | 57 | 1016.1 |
| 20260505164904 | 75 | 148 | 0.9 | 1.7 | 0.00 | 0.00 | 0.00 | 60 | 1016.1 |
| 20260505164401 | 76 | 83 | 1.7 | 2.6 | 0.00 | 0.00 | 0.00 | 57 | 1016.1 |
| 20260505163859 | 75 | 170 | 0.9 | 1.7 | 0.00 | 0.00 | 0.00 | 56 | 1016.3 |
| 20260505163358 | 75 | 109 | 0.9 | 0.9 | 0.00 | 0.00 | 0.00 | 58 | 1016.3 |
| 20260505162856 | 75 | 131 | 2.6 | 2.6 | 0.00 | 0.00 | 0.00 | 59 | 1016.1 |
| 20260505162351 | 75 | 126 | 3.5 | 4.3 | 0.00 | 0.00 | 0.00 | 57 | 1016.1 |
| 20260505161849 | 75 | 193 | 0.9 | 1.7 | 0.00 | 0.00 | 0.00 | 59 | 1016.4 |
| 20260505161345 | 75 | 150 | 2.6 | 4.3 | 0.00 | 0.00 | 0.00 | 54 | 1016.3 |
| 20260505160843 | 74 | 182 | 1.7 | 1.7 | 0.00 | 0.00 | 0.00 | 60 | 1016.7 |
| 20260505160341 | 75 | 156 | 2.6 | 2.6 | 0.00 | 0.00 | 0.00 | 61 | 1016.6 |
| 20260505153319 | 73 | 148 | 2.6 | 4.3 | 0.00 | 0.00 | 0.00 | 64 | 1016.6 |
| 20260505152816 | 73 | 139 | 2.6 | 2.6 | 0.00 | 0.00 | 0.00 | 65 | 1016.4 |
| 20260505152313 | 73 | 158 | 2.6 | 2.6 | 0.00 | 0.00 | 0.00 | 63 | 1016.6 |
| 20260505151808 | 72 | 139 | 2.6 | 2.6 | 0.00 | 0.00 | 0.00 | 63 | 1016.8 |
| 20260505151305 | 72 | 142 | 1.7 | 1.7 | 0.00 | 0.00 | 0.00 | 64 | 1016.7 |
| 20260505150802 | 72 | 174 | 2.6 | 4.3 | 0.00 | 0.00 | 0.00 | 63 | 1016.6 |
| 20260505150259 | 72 | 162 | 2.6 | 2.6 | 0.00 | 0.00 | 0.00 | 65 | 1016.6 |
| 20260505140229 | 69 | 178 | 1.7 | 2.6 | 0.00 | 0.00 | 0.00 | 70 | 1016.8 |
| 20260505130153 | 66 | 162 | 2.6 | 5.2 | 0.00 | 0.00 | 0.00 | 74 | 1016.8 |
| 20260505124643 | 66 | 144 | 1.7 | 2.6 | 0.00 | 0.00 | 0.00 | 76 | 1017.1 |
| 20260505124139 | 65 | 145 | 0.9 | 1.7 | 0.00 | 0.00 | 0.00 | 78 | 1017.1 |
| 20260505123629 | 65 | 157 | 3.5 | 4.3 | 0.00 | 0.00 | 0.00 | 78 | 1017.0 |
| 20260505123126 | 64 | 147 | 1.7 | 1.7 | 0.00 | 0.00 | 0.00 | 78 | 1016.7 |
| 20260505122623 | 63 | 157 | 1.7 | 2.6 | 0.00 | 0.00 | 0.00 | 80 | 1016.9 |
| 20260505122120 | 63 | 168 | 0.0 | 0.0 | 0.00 | 0.00 | 0.00 | 81 | 1016.6 |